Regional Weather Roundup
Issued by NWS

Home | Current Version | Previous Version | Graphics & Text | Print | Product List | Glossary On
Versions: 1 2 3 4 5 6 7 8 9 10 11 12 13 14 15 16 17 18 19 20 21 22 23 24 25 26 27 28 29 30 31 32 33 34 35 36 37 38 39 40 41 42 43 44 45 46 47 48 49 50
000
ASUS43 KDTX 270910
RWRMI
MICHIGAN HOURLY REGIONAL WEATHER ROUNDUP
NATIONAL WEATHER SERVICE DETROIT/PONTIAC MI
400 AM EST TUE JAN 27 2015

NOTE: "FAIR" INDICATES FEW OR NO CLOUDS BELOW 12,000 FEET WITH NO
SIGNIFICANT WEATHER AND/OR OBSTRUCTION TO VISIBILITY.

MIZ047>049-052>055-059>063-066>070-074>076-081>083-271000-
SOUTHEAST LOWER MICHIGAN

CITY           SKY/WX    TMP DP  RH WIND       PRES   REMARKS
ADRIAN         CLOUDY    16  11  80 NE6       29.98S WCI   7
ALMA           PTCLDY    14  11  88 CALM      30.03R
ANN ARBOR      CLEAR      7   3  84 NE3       29.98R
BAD AXE        PTCLDY     3   1  91 CALM      30.02F
CARO           CLEAR      5   1  86 CALM      30.02S
DETROIT CITY   CLEAR     15   8  73 N7        30.00R WCI   5
DETROIT        PTCLDY    12   9  87 N6        30.00S WCI   3
FLINT          CLEAR      9   4  80 CALM      30.00S
GROSSE ILE     CLEAR     10   7  85 N3        29.97F
HILLSDALE      CLOUDY    17  11  79 CALM      29.94R
HOWELL         CLEAR      9   8  93 N3        29.98S

CITY           SKY/WX    TMP DP  RH WIND       PRES   REMARKS
JACKSON        CLOUDY    16  11  80 N3        29.97R
LAMBERTVILLE   PTCLDY    10   5  79 CALM      29.98S
LANSING        MOCLDY    14  10  84 NE5       30.00S WCI   6
LAPEER         FAIR       5   3  89 CALM      30.00S
MASON          CLOUDY    14  10  85 NE3       29.99R
MT. CLEMENS    CLEAR     10   6  85 N5        29.98R WCI   1
PONTIAC        CLEAR      7   4  87 CALM      29.97S
PORT HOPE        N/A     20  10  65 NE9       30.02S WCI   9
PORT HURON     CLEAR      1   0  92 CALM      30.00R
TRI CITIES     CLOUDY    14   9  80 NE7       30.04R WCI   4
TROY           CLEAR     15  10  80 CALM      30.01S
SAGINAW HB     PTCLDY    10   9  92 CALM      30.03R
$$
MIZ043>046-050>051-056>058-064>065-071>073-077>080-271000-
SOUTHWEST LOWER MICHIGAN

CITY           SKY/WX    TMP DP  RH WIND       PRES   REMARKS
BATTLE CREEK   CLOUDY    20  10  65 NE6       29.97R WCI  12
BENTON HARBOR  CLOUDY    22  11  62 E6        29.97S WCI  14
BIG RAPIDS     CLOUDY    18  10  71 CALM      30.00S
COLDWATER      CLOUDY    19  10  70 E5        29.96R WCI  12
FREMONT        CLOUDY    18   9  70 E5        30.01R WCI  11
HOLLAND        CLOUDY    22  13  68 E7        30.00R WCI  13
GRAND RAPIDS   CLOUDY    18  12  77 NE8       29.99S WCI   8
IONIA          CLOUDY    18  13  82 E6        29.99S WCI   9
KALAMAZOO      CLOUDY    20  10  65 NE5       29.97S WCI  13
LUDINGTON      CLOUDY    21  13  71 E5        30.04R WCI  14
MARSHALL       CLOUDY    17  10  75 CALM      29.97R
MOUNT PLEASANT PTCLDY    14  10  84 N3        30.02S
MUSKEGON       CLOUDY    20  11  68 E8        30.02R WCI  10
SOUTH HAVEN    CLOUDY    23  11  60 E5        29.97S WCI  17
$$
MIZ016>042-271000-
NORTHERN LOWER MICHIGAN

CITY           SKY/WX    TMP DP  RH WIND       PRES   REMARKS
ALPENA         LGT SNOW  17  14  88 NE8       30.07S FOG     WCI   7
BEAVER ISLAND  PTCLDY    15  13  92 CALM      30.09R
BELLAIRE       MOCLDY    19  11  73 CALM      30.07S
CADILLAC       CLOUDY    15  10  78 NE3       29.98S
CHARLEVOIX     CLOUDY    18  12  77 E6        30.10S WCI  10
FRANKFORT      PTCLDY    18  11  74 E3        30.06R
GAYLORD        CLOUDY    15  11  83 NE7       30.01S WCI   5
GRAYLING       CLOUDY    16  11  82 NE6       30.02S WCI   7
HARBOR SPRINGS CLOUDY    18  13  82 NE7       30.07S WCI   8
HOUGHTON LAKE  CLOUDY    15   9  76 NE6       30.01S WCI   6
MANISTEE       MOCLDY    19   9  63 E5        30.05R WCI  13
OSCODA         FLURRIES  14   9  81 N7        30.04S WCI   3
PELLSTON       CLOUDY    18  14  84 E8        30.09R WCI   8
ROGERS CITY    CLOUDY    18  14  85 E7        30.10R WCI   8
TRAVERSE CITY  CLOUDY    19  11  70 CALM      30.05R
$$
MIZ007>008-015-271000-
EASTERN UPPER MICHIGAN

CITY           SKY/WX    TMP DP  RH WIND       PRES   REMARKS
KINROSS        PTCLDY     9   1  72 E6        30.11S WCI  -1
MACKINAC ISLAN MOCLDY    14   8  79 NE13      30.09S WCI  -1
NEWBERRY       PTCLDY     5   1  83 E5        30.09S WCI  -4
S. S. MARIE    PTCLDY     8  -2  63 E3        30.12R
MUNISING         N/A     13   8  81 CALM      30.10R
$$
MIZ004>006-011>014-085-271000-
CENTRAL UPPER MICHIGAN

CITY           SKY/WX    TMP DP  RH WIND       PRES   REMARKS
MANISTIQUE     PTCLDY    11   9  92 NE6       30.09R WCI   2
ESCANABA       CLOUDY    19  16  86 CALM      30.07R
MENOMINEE      CLOUDY    19  16  86 NE5       30.05R WCI  13
SAWYER-GWINN   FLURRIES  17  14  88 S3        30.04R
$$
MIZ001>003-009>011-084-271000-
WESTERN UPPER MICHIGAN

CITY           SKY/WX    TMP DP  RH WIND       PRES   REMARKS
IRON MOUNTAIN  CLOUDY    20  16  84 NE3       30.03R
HOUGHTON       CLOUDY    20  16  84 E3        30.03R
COPPER HARBOR    N/A     24  17  74 VRB5      30.07R WCI  18
IRONWOOD       CLOUDY    19  18  93 CALM      29.99R
$$

ABBREVIATIONS USED IN REMARKS
   TC - TEMPERATURE IN CELSIUS
  WCI - WIND CHILL INDEX
   HX - HEAT INDEX
  VSB - VISIBILITY




USA.gov is the U.S. government's official web portal to all federal, state and local government web resources and services.